CAPE
447 978 1301 1589 1354 346 15 52 64 88 88 97 79 71 25 0 0 0 0 0 0 82 56 442 944 1010 912 1042 1111 1003 955 1000 1207 1143 1154 1227 1198 1045 1049 1013 888 1085 977 1011 1331 1505 1419 1463 1231
1164 1475 1569 2009 603 63 58 69 64 80 135 91 95 32 33 0 0 0 0 0 51 104 87 125 530 898 1094 1226 1157 1038 1189 1046 1159 1175 977 1163 688 401 715 873 997 1084 1268 1072 1224 1352 1450 1500 1428
1503 1554 2375 1181 45 23 28 75 72 96 89 122 88 32 10 2 0 0 0 17 114 182 231 200 482 687 1005 876 490 830 1113 1107 875 1073 989 1114 943 1021 641 805 921 937 1096 1049 955 1213 1390 1161 1422
1480 2112 1918 278 53 64 72 84 91 56 85 104 89 70 9 0 0 0 0 2 88 67 63 361 615 211 356 219 248 1045 1026 1349 1320 1272 1150 1206 1150 871 801 770 836 768 840 940 863 868 806 516 301
1070 997 683 68 49 53 60 54 64 68 80 113 113 66 0 0 0 1 26 58 164 145 97 263 408 291 168 67 355 871 1133 857 1346 1131 710 530 464 644 671 727 698 588 641 647 782 795 605 324 447
1176 262 56 29 66 66 43 98 65 48 73 29 28 5 2 0 0 18 109 84 151 144 270 251 510 460 485 285 405 1025 1232 733 741 1207 1094 1030 639 397 420 426 567 717 714 597 435 471 632 421 397
886 471 51 64 96 63 74 17 18 44 66 149 38 66 0 0 0 7 46 139 133 341 132 126 282 424 474 895 1038 879 1123 941 1263 1154 1165 971 752 658 576 931 834 713 418 411 354 372 445 607 372
1082 610 59 60 53 130 94 56 3 36 73 180 239 209 0 0 0 3 0 9 131 138 148 228 228 327 192 310 1010 1174 987 890 840 998 957 603 402 360 1018 492 897 898 772 613 447 344 309 315 604
635 600 117 142 93 95 93 109 0 5 50 148 246 293 27 0 0 0 0 0 119 196 227 225 71 314 377 343 754 932 905 971 852 231 13 216 734 812 319 476 1 0 293 424 348 625 448 236 343
820 200 139 158 287 150 207 105 43 228 63 103 371 274 0 0 0 0 0 24 99 189 136 495 268 197 221 248 259 686 281 232 543 380 666 848 639 758 282 125 76 15 43 0 0 1 144 191 187
423 77 181 190 303 221 303 113 144 63 23 90 50 5 0 0 1 37 35 54 255 205 167 141 212 263 99 203 182 114 109 148 202 930 1018 753 922 617 284 197 304 147 94 24 2 0 1 223 501
389 435 353 259 298 390 340 95 136 100 0 15 0 1 66 29 2 9 34 114 138 159 125 117 136 218 243 140 132 101 79 35 191 594 959 1034 927 979 339 118 142 185 87 25 0 0 2 196 253
516 472 482 364 329 484 298 140 143 217 0 4 0 0 15 34 16 1 40 121 210 125 125 80 205 192 286 302 85 80 146 14 149 297 696 672 731 1262 857 256 212 602 337 69 195 80 323 303 113
266 545 507 527 511 610 480 274 260 261 0 0 9 17 48 85 34 155 265 309 229 164 77 75 168 232 329 151 318 483 576 560 569 608 1016 1285 1116 1427 1033 310 497 350 764 753 557 461 586 25 159
109 553 674 640 626 649 776 676 184 231 5 8 18 56 149 233 146 450 330 303 163 97 41 59 73 79 173 365 475 790 717 796 735 1003 1171 1641 1596 1418 1481 981 524 1328 1424 874 743 582 798 453 567
124 385 383 577 624 463 292 667 342 177 39 31 89 213 282 317 305 269 292 373 251 145 76 99 58 55 270 491 852 857 846 1032 1121 1055 1357 1316 1633 1725 1578 1309 1406 1292 1482 1367 968 538 551 1074 955
220 28 213 270 471 267 288 746 508 161 164 225 163 158 274 347 269 277 540 525 363 206 126 181 228 238 543 983 1047 805 1005 1008 953 964 1348 1892 1722 1746 1527 1189 1414 1171 784 1171 1063 718 1153 1119 1021
74 44 136 321 420 308 294 575 568 194 227 231 346 360 261 186 207 356 589 455 369 100 112 468 455 549 914 1202 1261 859 911 828 916 987 1455 1818 1791 1729 1849 1644 1354 1420 1105 1029 830 801 918 959 811
5 54 189 318 446 490 465 711 604 347 83 120 190 296 363 257 223 455 513 388 359 187 155 377 463 487 1007 1061 796 599 393 650 771 949 1396 1828 1922 2206 1841 1561 1604 1373 1138 1397 1296 1110 1057 897 847
3 33 196 362 247 429 352 733 730 485 198 101 128 222 327 226 200 473 546 648 521 625 551 431 465 741 1081 1162 1095 777 506 502 734 1122 1523 1754 1827 1946 2200 1288 1167 1504 1109 1367 1463 1124 789 862 841
1 13 75 361 364 288 472 612 814 612 415 147 119 175 253 306 198 297 488 581 665 699 878 932 1098 1104 1323 1185 1214 1391 1202 777 877 957 1082 1769 2019 2020 2024 1629 1872 1638 1772 1451 1176 1347 1256 957 1101
0 2 31 350 254 366 27 9 650 641 618 302 169 187 191 244 360 466 457 414 435 453 662 871 1140 1418 1486 1655 1183 1377 1180 708 713 764 1956 1714 1958 1980 1995 2382 1364 1617 1630 1822 1724 1709 1610 1638 1169
97 43 76 281 300 141 160 18 612 726 611 647 344 193 191 287 409 525 403 357 354 509 548 653 1159 1542 1724 1797 1776 1368 1423 640 952 1369 1839 1982 2571 2208 1698 2394 1920 1096 1981 1790 2046 2027 1946 1507 1347
72 227 202 271 242 1 0 105 415 604 634 657 650 475 270 206 174 250 223 333 424 412 540 586 1113 1785 2017 2040 2124 1973 1429 1176 775 1382 1700 1789 1969 2040 2141 2056 2365 1251 1441 1730 1751 1790 2000 1904 2059
230 192 109 14 133 42 0 247 238 204 232 479 694 651 584 358 239 218 225 299 338 316 380 479 916 1811 2322 2251 2105 2198 1854 1740 1272 1506 1339 1367 1347 1176 2667 2358 2015 1567 1462 1673 1432 1570 2099 1979 1675
182 54 0 43 9 146 58 8 252 126 205 415 574 578 570 603 366 331 334 299 301 265 423 399 731 1631 2193 2227 2231 2325 2268 1912 1572 1274 880 1187 1441 1420 2672 2437 2382 2134 1867 1745 1657 1318 1061 1402 1538
52 4 27 3 42 19 92 492 241 205 190 258 349 731 456 591 524 391 526 542 502 453 438 438 592 1484 1881 1933 2259 2399 2471 2263 1437 1219 1353 1123 1433 1402 1979 1931 2691 2355 2716 2071 1868 1577 1235 1266 1373
0 0 4 29 5 90 35 372 405 614 669 541 269 435 538 659 727 699 676 589 706 494 378 404 692 1090 1712 1634 2080 2249 2380 2611 2219 1570 1475 1199 1262 1799 2635 2660 2538 2419 2373 2574 2401 1954 1729 1676 1147
0 0 0 1 51 55 207 18 843 962 990 858 750 719 771 903 920 831 874 775 667 499 438 478 618 932 1333 1701 1837 2144 2308 2368 2484 1861 1794 1927 1653 1900 2542 2403 2566 2594 2547 2631 2789 2376 2410 2490 2199
1 2 10 2 28 14 125 614 843 993 996 1095 1198 1231 1209 940 843 753 763 785 863 898 692 618 616 939 1316 1666 1950 2088 2256 2265 2130 2184 1789 1965 2106 2105 2601 2979 2589 2195 2369 2505 2794 2781 2458 2653 2420
CIN
-155 -78 -56 -22 -2 -20 -7 -4 -3 -3 -3 -2 -7 -48 -68 0 0 -12 0 0 -2 -4 -11 0 0 0 -6 0 0 -3 0 -4 0 0 0 0 -1 -2 0 -1 0 0 0 0 0 0 0 0 -2
-83 -40 -31 -8 -19 -2 -3 -2 -4 -3 -7 -9 -6 -29 -37 0 0 0 0 0 -68 -4 -2 -2 -9 -2 0 0 0 0 0 -3 -1 0 -1 0 -3 -12 -5 0 -1 -1 0 -1 0 0 0 0 0
-60 -78 -8 -6 -6 -10 -8 -2 -2 -1 -2 -37 -45 -16 -60 -6 0 0 0 -100 -29 -73 -23 -53 -11 -3 0 -3 -16 -3 0 -2 -3 0 0 0 0 0 -7 -3 0 -2 0 0 -1 0 0 -1 0
-64 -24 -43 -22 -2 -3 -2 -4 -2 -2 -4 -83 -102 -79 -70 0 0 0 0 -92 -30 -1 -11 -23 -2 -14 -8 -11 -10 -2 -2 0 0 0 0 0 0 0 -1 0 0 0 -1 -3 0 -2 -4 -12 -12
-78 -40 -6 -2 -2 -5 -3 -2 -5 -3 -87 -59 -79 -93 0 0 0 -25 -53 -40 -29 -3 -9 -25 -17 -18 -14 -21 -8 -4 -2 -3 0 0 -3 -1 -4 -2 -1 -3 0 0 0 -2 0 0 -9 -14 -13
-13 -76 -22 -9 -2 -2 -2 -60 -2 -15 -64 -29 -16 -1 -1 0 0 -56 -72 -29 -42 -3 -6 -12 -18 -13 -7 -15 -14 0 0 -32 -6 0 0 0 -4 -11 -7 -6 -2 0 0 0 -5 -2 -14 -13 -15
-12 -10 -3 -1 -22 -2 -30 -2 -3 -3 -2 -6 -31 -10 0 0 0 -22 -46 -52 -44 -4 -2 -7 -7 -11 -21 -2 -1 -2 -2 0 0 0 0 -2 -11 -6 -3 0 0 0 0 0 -4 -4 -17 -5 -12
-62 -6 -5 -28 -2 -1 -3 -2 -2 -1 -19 -6 -8 -2 -1 0 0 -116 0 -113 -7 -3 -10 -4 -7 -17 -6 -6 0 0 -2 -3 -2 -2 -8 -14 -31 -31 -4 -4 0 0 0 0 -18 -4 -9 -25 -11
-41 -6 -4 -2 -4 -3 -3 -2 0 -8 -18 -16 -5 -9 -48 0 0 0 0 0 -51 -13 -9 -4 -21 -5 -3 -8 -3 -5 -7 -9 -15 -34 -32 -48 -24 -9 -13 -3 -29 0 -11 -23 -16 -4 -7 -26 -25
-12 -3 -3 -4 -6 -3 -3 -2 -2 -3 -25 -10 -2 -5 0 0 0 0 -26 -19 -28 -8 -9 -5 -13 -2 -1 -2 -28 -2 -23 -14 -6 -7 -3 -5 -3 -2 -23 -36 -58 -40 -64 -68 0 -31 -52 -46 -6
-3 -2 -5 -3 -5 -1 -3 -4 -9 -24 -5 -37 -4 -38 0 0 -15 -45 -4 -52 -10 -19 -34 -59 -33 -14 -3 -2 -4 -4 -6 -2 -3 -2 -1 -3 -1 -33 -48 -24 -6 -27 -23 -35 -48 0 -9 -17 -5
-4 -3 -3 -3 -2 -2 -3 -5 -10 -26 0 -6 -7 -13 -39 -46 -85 -11 -4 -8 -17 -37 -27 -48 -46 -11 -2 -5 -5 -5 -10 -1 -4 -1 -5 -5 -4 -3 -52 -37 -22 -26 -29 -45 -7 0 -23 -14 -3
-2 -4 -1 -3 -2 -3 -4 -1 -3 -6 0 -39 0 0 -60 -71 -52 -1 -9 -13 -6 -3 -14 -71 -48 -36 -7 -10 -2 -7 -2 -4 -8 -7 -4 -1 -2 -2 -33 -34 -18 -4 -9 -39 -20 -51 -1 -2 -8
-3 -4 -3 -3 -1 -3 -2 -4 -4 -1 0 0 -62 -73 -75 -37 -30 -18 -4 -3 -4 -5 -34 -86 -23 -62 -27 -24 -5 -1 0 -4 -1 -1 -3 -1 -1 -3 -19 -29 -13 -15 -5 -1 -1 -1 -6 -40 -4
-39 -9 -2 -3 -3 -4 -3 -3 -10 -2 -65 -76 -73 -24 -6 -4 -31 -3 -2 -2 -11 -15 -76 -95 -111 -82 -57 -15 -19 -8 -1 -3 -6 -3 -2 -1 -1 -13 -1 -13 -22 -5 -1 -1 -1 -4 -2 -4 -2
-33 -3 -3 -18 -12 -5 -62 -5 -15 -12 -45 -81 -65 -31 -15 -4 -3 -4 -6 -9 -5 -31 -112 -142 -106 -42 -19 -2 -3 -4 0 -9 -2 -1 -4 -1 -1 -1 -1 -5 -2 -2 -1 0 -1 -1 -5 0 -1
-4 -11 -19 -28 -21 -7 -21 -1 -10 -29 -24 -37 -68 -42 -29 -16 -16 -5 -4 -4 -8 -44 -100 -82 -34 -17 -4 0 -1 -1 -1 -4 -1 -2 -5 -7 -1 0 -2 -13 -1 -2 -16 -3 -2 -10 -2 -7 -4
-6 -37 -5 -7 -29 -8 -3 -2 -2 -24 -7 -28 -30 -14 -41 -51 -40 -4 -3 -2 -6 -61 -67 -54 -51 -13 -2 -2 -1 -1 -1 -1 -1 -3 0 -4 -4 0 -4 -10 -1 -2 -1 -6 -5 -5 -3 -5 -6
-44 -5 -5 -12 -29 -4 -2 -3 -1 -15 -67 -34 -31 -17 -7 -25 -33 -6 -5 -6 -2 -29 -83 -76 -57 -62 -3 -1 -4 -4 -6 -7 -2 -3 -1 -1 -1 -2 -3 -3 -2 0 0 -1 -1 -7 -1 -2 -3
-3 -2 -3 -17 -28 -5 -13 -2 -7 -20 -42 -58 -41 -14 -14 -27 -40 -7 -6 -7 -8 -4 -5 -29 -25 -5 -2 -2 -2 -3 -3 -3 -2 -2 -1 0 -1 0 -3 -5 -1 -8 -2 -5 -2 -7 -2 -2 -1
-7 -5 -8 -6 -41 -25 -7 -2 -1 -25 -27 -51 -54 -22 -13 -16 -44 -26 -3 -4 -7 -3 -5 -6 -15 -8 -15 -11 -2 -2 -4 -15 -2 -2 -4 -2 -1 0 -1 -1 -7 -3 -2 -2 -2 -2 -3 -2 -3
-3 -25 -25 -34 -26 -11 -82 -112 -13 -35 -32 -46 -57 -39 -12 -12 -10 -3 -4 -6 -5 -4 -3 -2 -9 -22 -15 -19 -3 -7 -2 -3 -3 -4 -8 -2 -4 0 0 0 -4 -1 -8 -1 -2 0 -7 -11 -4
-25 -50 -56 -60 -39 -3 -8 -19 -2 -11 -27 -18 -33 -29 -18 -3 -3 -3 -21 -7 -11 -4 -4 -2 -13 -22 -31 -11 -23 -4 -10 -3 -4 -2 -6 -8 -5 -1 0 -1 0 -11 -1 -2 0 0 -3 -2 -16
-73 -41 -45 -40 -16 -8 0 -84 -20 -5 -2 -4 -2 -6 -6 -9 -6 -6 -9 -6 -4 -5 -6 -5 -8 -28 -33 -30 -34 -22 -3 -5 -3 -2 -7 -7 -3 -8 -3 -1 -1 -1 -1 -1 -1 -1 -1 -8 -14
-48 -7 -54 -16 -17 -28 0 -8 -21 -30 -27 -10 -4 -3 -5 -6 -6 -5 -5 -7 -6 -6 -2 -3 -5 -21 -38 -44 -31 -36 -19 -9 -15 -9 -3 -7 -7 -3 -19 -8 -1 -4 -15 -1 -2 -1 -1 -1 -2
-9 -50 -6 -10 -2 -7 -14 -1 -26 -48 -54 -30 -6 -4 -12 -3 -4 -4 -3 -2 -3 -2 -4 -2 -6 -20 -34 -46 -47 -36 -33 -18 -18 -12 -5 -6 -8 -9 -4 -6 -1 -1 -4 -2 -1 -4 -19 -2 0
-24 -1 -19 -13 -6 -60 -7 -48 -69 -81 -77 -52 -2 -4 -24 -2 -2 -5 -2 -2 -4 -9 -2 -1 -2 -12 -32 -41 -48 -52 -48 -32 -16 -3 -14 -9 -8 -8 -7 -2 -1 -1 -1 -1 0 -1 -4 -19 -16
0 0 -20 -2 -8 -6 -34 -8 -4 -40 -56 -70 -15 -30 -25 -12 -6 -4 -3 -2 -4 -6 -13 -14 -4 -6 -21 -30 -45 -51 -49 -41 -31 -28 -34 -15 -1 -6 -2 -1 -1 -2 -5 0 -2 -2 -3 -9 -28
0 0 0 -16 -51 -18 -15 -83 -17 -55 -75 -61 -30 -31 -28 -38 -32 -11 -8 -5 -6 -4 -4 -4 -7 -5 -18 -35 -39 -47 -51 -48 -49 -47 -43 -33 -28 -10 -3 -10 -1 -1 -2 0 -1 -16 -6 -3 -2
-1 -4 -10 -3 -20 -35 -12 -5 -34 -47 -79 -51 -44 -33 -53 -61 -50 -26 -16 -1 -11 -6 -5 -3 -8 -4 -30 -37 -49 -50 -51 -45 -42 -46 -49 -40 -42 -28 -9 -5 -12 -20 -3 0 -1 0 -2 -6 -12
Wind_Speed
20 18 16 14 14 18 14 18 18 15 16 16 13 9 7 9 12 9 21 32 27 20 16 18 17 15 19 20 21 20 20 20 21 26 28 27 27 28 28 28 28 28 28 28 28 28 28 27 28
17 16 16 14 12 14 16 16 16 16 16 17 17 14 11 10 10 10 13 31 19 22 20 13 15 17 18 19 21 20 20 21 21 26 28 27 27 27 27 27 27 27 28 28 27 27 28 27 27
16 15 14 11 16 15 18 18 18 17 15 14 14 15 12 9 10 14 7 4 12 11 5 8 14 17 19 19 22 21 21 21 23 27 26 24 25 24 24 24 25 25 26 25 26 26 26 26 26
15 18 15 8 19 19 20 20 19 18 16 15 13 13 13 7 9 10 10 7 24 2 4 10 14 11 17 20 24 24 23 22 5 17 22 21 22 23 23 22 21 21 23 24 25 24 23 24 24
16 15 17 21 22 21 21 19 18 18 17 14 16 12 9 8 11 15 9 2 2 9 3 6 15 9 15 18 20 20 14 16 16 19 20 20 21 22 22 22 22 21 20 21 22 23 19 16 22
17 14 15 19 22 23 23 22 19 19 17 16 15 14 9 11 14 9 4 19 19 7 4 8 13 14 15 15 17 18 14 7 9 19 19 20 21 21 21 21 21 20 19 19 20 20 21 12 8
15 16 19 19 20 22 23 23 21 20 18 18 17 13 10 12 10 9 5 3 19 7 17 8 12 14 16 15 18 18 16 14 15 18 20 20 20 20 20 19 18 18 17 17 18 20 18 18 9
16 10 18 19 20 22 22 23 22 21 21 20 18 14 15 12 8 4 3 3 21 10 13 15 21 24 26 18 16 16 17 16 18 18 18 18 18 18 18 18 17 17 14 14 13 15 16 18 17
16 17 18 19 19 22 21 22 22 22 20 17 15 16 20 16 8 4 8 3 2 24 7 19 16 16 16 11 16 18 18 19 19 18 17 16 16 16 17 16 16 13 15 15 14 15 16 18 19
14 15 17 19 21 21 22 23 21 20 20 20 17 20 21 19 8 6 11 10 26 28 18 18 19 18 17 14 15 21 21 20 18 18 16 13 14 16 17 16 14 13 10 21 21 19 18 19 20
13 17 19 20 21 21 22 22 20 22 21 21 23 26 26 22 10 6 31 28 29 28 15 20 19 16 18 15 21 21 20 19 18 16 15 14 11 16 20 15 13 13 10 18 26 23 21 18 17
16 16 18 19 20 21 22 22 23 24 25 26 31 29 29 29 26 29 27 27 25 17 19 20 18 20 18 17 20 17 18 17 17 17 15 14 12 14 19 14 12 14 15 21 26 23 22 20 19
15 14 16 18 19 21 22 23 23 24 28 30 31 33 35 33 34 31 30 28 24 21 22 21 21 21 19 18 18 18 18 18 16 16 15 12 12 16 20 14 12 15 17 22 24 23 22 21 20
15 17 15 16 17 18 20 21 24 24 28 30 32 33 33 30 31 29 28 26 23 20 21 22 24 18 22 21 19 18 19 17 16 15 16 14 12 16 19 13 13 16 19 22 22 23 22 22 21
19 20 17 14 13 15 18 20 21 25 27 27 30 31 28 30 30 29 28 25 24 23 23 23 24 23 23 22 21 20 19 16 15 12 13 13 11 15 9 14 12 16 19 22 22 22 22 20 21
22 20 18 15 14 15 16 22 21 25 24 26 27 30 29 27 28 27 25 26 26 26 26 26 25 23 21 21 19 20 17 17 15 14 14 17 15 12 11 10 11 17 20 21 23 23 22 21 20
20 19 16 15 19 16 15 21 20 23 24 25 28 29 27 27 27 27 26 25 26 26 26 25 24 23 16 19 18 18 17 17 15 14 13 17 17 18 11 19 12 13 21 22 23 22 21 21 21
20 16 18 17 17 17 13 16 20 22 23 24 26 25 26 27 27 27 26 26 26 26 26 25 23 22 20 16 18 17 16 16 15 13 14 17 16 17 11 18 14 11 20 21 21 21 20 20 20
16 12 18 18 20 19 19 20 21 21 22 22 25 24 24 28 29 28 26 26 26 27 27 20 22 20 20 19 17 16 15 14 13 13 13 13 15 17 12 17 18 15 18 19 20 20 19 19 20
16 16 18 18 21 18 19 20 20 21 19 21 23 24 25 24 28 29 28 28 27 23 22 21 22 20 19 18 17 19 15 14 13 13 14 13 14 16 16 8 17 18 19 19 19 19 18 18 19
17 15 17 18 22 19 21 20 21 20 19 19 21 24 25 24 25 25 27 24 22 20 21 21 21 20 19 21 16 14 16 14 12 13 12 13 14 14 16 16 14 17 18 19 18 18 13 17 18
11 12 17 21 23 17 21 20 22 23 22 21 19 21 23 25 22 17 17 20 22 20 20 21 21 20 19 20 20 18 16 13 12 14 14 14 13 13 14 15 15 16 16 16 16 16 18 18 18
12 13 20 21 20 9 16 18 22 21 19 20 20 18 22 23 22 16 22 21 22 19 19 20 19 20 21 17 20 12 13 11 12 11 14 11 12 12 13 14 14 14 16 14 15 15 17 19 17
18 21 21 20 8 16 12 20 12 18 15 18 17 17 16 18 27 29 25 28 27 23 20 18 14 16 17 17 15 16 12 11 11 11 12 10 11 13 13 13 13 13 13 14 14 14 16 18 18
25 24 21 16 19 14 16 14 25 21 17 11 16 18 17 10 17 21 30 28 24 24 15 13 11 13 15 14 14 12 10 8 10 10 11 11 10 10 11 12 12 13 14 14 13 13 11 16 19
27 20 8 18 16 14 15 17 21 22 19 16 11 17 18 10 6 32 24 26 25 18 12 11 9 13 14 14 13 10 9 9 9 8 11 10 10 9 11 11 10 11 11 12 12 13 14 12 14
24 24 20 18 20 15 9 19 21 22 21 18 15 11 1 19 32 29 25 19 9 11 14 9 10 9 11 10 10 9 8 10 7 7 7 7 7 7 9 8 8 9 9 10 11 13 10 9 8
28 24 20 21 9 16 12 19 18 20 22 23 20 19 21 26 27 29 23 22 6 12 10 10 8 8 7 8 8 9 9 7 6 5 5 5 6 6 10 9 6 6 7 7 7 7 7 7 7
16 28 26 19 23 20 15 16 16 18 20 22 23 23 21 20 22 25 26 25 19 11 11 8 8 6 5 5 6 8 9 9 6 5 5 4 4 4 5 5 6 5 6 5 5 4 13 5 5
22 27 27 23 20 25 17 11 15 15 17 17 20 21 21 18 18 18 19 14 10 25 11 10 7 4 4 4 4 5 4 4 3 3 3 2 2 2 2 2 2 5 6 6 5 4 7 4 6
Wind_Direction
150 161 175 186 180 75 2 36 32 25 22 23 14 9 11 314 317 329 107 137 166 187 189 186 192 194 182 177 167 165 162 155 148 122 95 102 98 92 90 88 89 93 91 96 97 89 91 85 95
176 179 175 176 197 4 12 9 359 6 33 48 41 44 6 338 0 73 104 152 203 182 176 202 203 195 188 182 170 168 165 154 149 123 91 77 85 81 84 85 89 92 92 98 95 95 94 90 84
176 179 180 201 3 356 24 20 25 32 38 17 13 27 357 2 55 96 101 96 219 208 219 216 203 197 188 184 169 168 163 158 143 96 80 55 64 65 65 67 76 73 75 81 96 96 91 81 82
176 151 147 187 24 10 14 33 47 37 19 0 15 6 1 359 72 91 110 94 184 255 232 207 199 211 196 186 167 162 158 155 349 41 60 48 50 58 61 59 54 45 62 73 82 88 79 88 85
169 160 123 46 31 23 23 28 31 29 14 16 338 357 21 49 89 99 99 94 276 66 230 218 199 214 198 190 182 179 195 60 46 53 51 46 54 58 60 59 59 58 52 56 73 90 107 105 108
151 120 35 34 41 47 31 37 46 27 28 23 31 51 38 87 102 103 145 195 200 54 61 219 207 204 202 201 196 191 202 248 1 61 57 58 66 69 69 66 64 55 42 43 60 76 92 347 276
180 108 26 27 32 23 25 40 31 39 49 51 76 53 69 106 115 108 112 51 202 217 196 222 210 207 205 207 198 199 204 216 203 116 108 88 81 79 77 68 55 45 45 42 46 83 86 128 231
150 166 35 50 24 31 45 46 47 52 56 72 82 63 110 121 136 202 164 233 191 221 217 209 190 177 171 200 209 211 208 209 176 154 128 125 105 93 88 70 36 12 357 359 5 41 178 135 171
128 91 42 50 50 46 71 52 45 64 74 77 69 92 110 116 148 191 214 227 273 185 244 205 214 203 211 231 209 202 196 174 156 139 140 152 129 113 70 53 49 75 316 307 297 250 228 164 149
144 49 6 62 44 59 65 59 83 71 55 52 76 97 109 114 179 203 213 106 134 153 206 211 207 212 213 223 220 185 164 155 151 119 145 161 125 84 54 68 79 71 92 265 226 211 205 178 164
157 36 57 65 59 58 70 76 94 57 60 64 94 109 115 116 201 158 143 158 151 169 216 207 214 227 213 226 192 173 157 149 141 152 167 156 164 67 55 76 107 76 127 180 207 194 184 193 173
63 44 39 64 79 78 60 84 76 60 66 86 109 113 116 125 190 192 183 178 188 212 212 208 221 216 220 226 203 215 191 182 161 121 136 129 109 84 47 78 121 137 140 157 172 167 162 170 172
65 46 66 65 85 71 83 67 83 81 87 98 108 122 135 137 153 169 172 167 196 205 205 211 213 214 223 220 216 204 194 161 167 138 126 136 120 74 47 91 139 145 148 142 151 149 160 144 142
66 88 65 92 92 91 80 77 83 96 102 107 121 132 140 141 160 173 181 194 205 214 208 208 203 226 206 199 215 198 171 181 168 160 72 112 138 64 53 104 111 144 141 142 141 144 149 133 140
98 98 75 58 59 99 71 126 60 106 110 112 128 140 131 151 153 167 181 199 204 205 206 208 206 211 191 193 177 173 179 206 132 94 174 117 174 75 169 107 123 123 138 135 127 131 146 119 131
88 109 95 86 116 150 83 98 73 115 117 123 130 145 146 165 173 179 194 200 193 189 189 168 186 160 144 159 144 170 160 162 157 137 141 60 98 107 144 189 148 120 114 128 134 127 121 127 117
100 88 60 71 174 200 83 83 70 121 129 133 143 148 157 166 182 185 189 191 191 197 164 168 168 168 109 136 149 168 159 158 154 77 182 55 20 345 200 74 133 152 86 109 124 113 108 112 118
80 147 101 90 170 181 206 27 99 124 139 141 146 146 166 181 189 188 190 181 182 160 167 161 160 163 158 113 155 168 158 163 157 150 44 30 24 39 200 14 312 191 95 100 116 116 107 121 130
126 218 112 77 137 154 138 104 119 122 136 142 153 155 155 180 183 186 187 179 182 171 189 141 153 153 153 155 147 146 151 133 137 149 60 74 78 29 176 44 60 134 40 74 101 104 101 126 123
111 117 92 86 138 161 135 123 120 128 129 139 154 158 162 158 167 190 181 184 174 155 153 154 169 160 157 162 161 209 177 143 130 147 52 74 106 49 52 162 58 65 55 86 107 124 102 109 119
48 40 122 169 157 163 139 163 140 132 125 130 147 157 163 154 155 159 173 167 160 149 159 162 164 166 163 186 151 139 182 164 128 132 123 100 86 82 62 73 349 78 102 100 99 114 149 116 110
324 223 175 159 163 108 100 151 144 138 142 146 146 153 154 158 152 140 142 154 161 159 162 164 167 169 171 176 190 175 198 145 114 137 39 59 82 80 58 69 65 113 109 78 103 106 146 174 147
302 219 140 146 166 360 127 280 106 124 130 147 156 152 162 167 163 146 166 161 168 154 160 163 164 173 179 160 180 136 148 127 123 94 35 82 62 85 81 67 86 88 136 66 109 99 128 166 190
242 182 163 154 161 287 288 33 199 96 115 145 156 157 157 161 181 189 177 201 193 171 164 158 143 157 164 167 158 170 142 140 126 114 54 133 66 80 77 61 90 78 94 90 111 112 131 203 231
214 204 205 325 226 20 312 19 26 34 52 114 158 165 160 149 178 172 197 191 178 188 152 145 129 147 152 154 156 147 140 112 127 119 122 52 78 101 71 63 67 85 106 111 122 111 78 140 194
239 259 301 290 317 9 354 348 9 35 55 61 76 158 158 156 257 205 167 186 204 163 143 137 126 144 146 152 151 135 131 130 134 115 147 119 38 110 48 51 56 42 65 104 110 130 133 120 138
253 262 269 251 268 346 131 22 33 36 43 54 62 27 74 166 218 211 176 162 135 143 155 134 134 128 138 139 140 138 133 144 112 110 90 117 71 84 29 34 39 31 44 71 93 138 89 88 90
248 275 254 251 190 292 328 4 23 33 42 46 65 107 144 197 224 227 176 175 112 148 139 142 136 139 127 130 127 137 139 134 130 92 98 78 63 68 22 20 31 30 30 43 67 92 90 81 93
286 243 235 283 248 237 331 343 37 44 54 56 74 103 127 185 191 197 195 186 171 145 148 141 145 140 136 130 124 130 136 135 123 126 116 105 89 64 39 18 10 6 357 1 16 31 330 24 30
261 255 247 263 275 265 341 25 27 30 45 53 60 78 103 168 181 191 156 131 168 220 161 163 154 150 156 142 139 144 133 122 119 113 112 76 77 74 61 54 21 348 341 339 331 327 328 326 325